Zamboanga, Philippines

2:00 AM +08 on February 26, 2018 (GMT +0800)
Zamboanga International

Weather History for RPMZ - November, 2012

Change the Weather History Date:

Saturday, November 10, 2012

  Actual Average Record
Temperature  
Mean Temperature 85 °F -  
Max Temperature 94 °F 89 °F - ()
Min Temperature 76 °F 74 °F - ()
Cooling Degree Days 20    
Growing Degree Days 35 (Base 50)    
Moisture  
Dew Point 77 °F    
Average Humidity 76    
Maximum Humidity 94    
Minimum Humidity 53    
Precipitation  
Precipitation 0.12 in 0.11 in - ()
Sea Level Pressure  
Sea Level Pressure 29.81 in    
Wind  
Wind Speed 2 mph ()    
Max Wind Speed 9 mph    
Max Gust Speed -    
Visibility 6.2 miles    
Events Thunderstorm    
T = Trace of Precipitation, MM = Missing Value Source: Averaged Metar Reports

Daily Weather History Graph

Daily Weather History Graph

Search for Another Location

Airport or City:

Trip Planner

Search our weather history database for the weather conditions in past years. The results will help you decide how hot, cold, wet, or windy it might be!

Date:

Astronomy

Nov. 10, 2012 Rise Set
Actual Time 5:40 AM +08 5:30 PM +08
Civil Twilight 5:18 AM +08 5:52 PM +08
Nautical Twilight 4:53 AM +08 6:17 PM +08
Astronomical Twilight 4:28 AM +08 6:42 PM +08
Moon 1:54 AM +08 (11/10) 2:16 PM +08 (11/10)
Length of Visible Light 12h 33m
Length of Day
11h 49m
Waning Crescent, 19% of the Moon is Illuminated
Nov 10
Waning Crescent
Nov 14
New
Nov 20
First Quarter
Nov 28
Full
Dec 6
Last Quarter

Hourly Weather History & Observations

Time (+08) Temp. Heat Index Dew Point Humidity Pressure Visibility Wind Dir Wind Speed Gust Speed Precip Events Conditions
2:00 AM 78 °F - 75 °F 89% 29.81 in 6 mi Calm Calm - -   Scattered Clouds
2:00 AM 77.0 °F - 75.2 °F 94% 29.80 in 6.2 mi Calm Calm - N/A   Scattered Clouds
5:00 AM 77 °F - 74 °F 88% 29.80 in 6 mi Calm Calm - -   Scattered Clouds
5:00 AM 77.0 °F - 73.4 °F 89% 29.80 in 6.2 mi Calm Calm - N/A   Mostly Cloudy
7:00 AM 77.0 °F - 75.2 °F 94% 29.83 in 6.2 mi Calm Calm - N/A   Mostly Cloudy
8:00 AM 83 °F - 77 °F 76% 29.86 in 6 mi East 2.2 mph - -   Haze
8:00 AM 82.4 °F 90.9 °F 77.0 °F 84% 29.86 in 6.2 mi East 2.3 mph - N/A   Scattered Clouds
9:00 AM 86.0 °F 99.3 °F 78.8 °F 79% 29.86 in 6.2 mi NNE 2.3 mph - N/A   Scattered Clouds
10:00 AM 87.8 °F 102.5 °F 78.8 °F 75% 29.86 in 6.2 mi SSE 4.6 mph - N/A   Mostly Cloudy
11:00 AM 91 °F - 79 °F 60% 29.83 in 7 mi SSE 4.5 mph - -   Haze
11:00 AM 91.4 °F 107.2 °F 78.8 °F 66% 29.83 in 6.2 mi SSE 4.6 mph - N/A   Mostly Cloudy
12:00 PM 91.4 °F 107.2 °F 78.8 °F 66% 29.83 in 6.2 mi South 6.9 mph - N/A   Scattered Clouds
1:00 PM 93.2 °F 110.2 °F 78.8 °F 63% 29.80 in 6.2 mi SSW 9.2 mph - N/A   Scattered Clouds
2:00 PM 93 °F - 78 °F 53% 29.78 in 6 mi SSW 2.2 mph - -   Haze
2:00 PM 93.2 °F 107.2 °F 77.0 °F 59% 29.80 in 6.2 mi SSW 2.3 mph - N/A   Scattered Clouds
3:00 PM 89.6 °F 104.7 °F 78.8 °F 70% 29.77 in 6.2 mi WSW 4.6 mph - N/A   Mostly Cloudy
4:00 PM 89.6 °F 102.2 °F 77.0 °F 66% 29.77 in 6.2 mi WSW 2.3 mph - N/A   Mostly Cloudy
5:00 PM 86 °F - 79 °F 74% 29.77 in 6 mi West 6.7 mph - -   Haze
5:00 PM 86.0 °F 99.3 °F 78.8 °F 79% 29.77 in 6.2 mi West 6.9 mph - N/A   Mostly Cloudy
6:00 PM 84.2 °F 94.1 °F 77.0 °F 79% 29.77 in 6.2 mi West 4.6 mph - N/A   Mostly Cloudy
8:00 PM 83 °F - 78 °F 79% 29.83 in 6 mi West 4.5 mph - - Thunderstorm Thunderstorm
8:00 PM 82.4 °F 90.9 °F 77.0 °F 84% 29.83 in 6.2 mi West 4.6 mph - N/A Thunderstorm Thunderstorm
11:00 PM 81 °F - 74 °F 74% 29.84 in 6 mi WSW 2.2 mph - -   Scattered Clouds
11:00 PM 80.6 °F 85.4 °F 73.4 °F 79% 29.83 in 6.2 mi WSW 2.3 mph - N/A   Mostly Cloudy